BOE1Z EKCH-ESSA

Flight info

Callsign BOE1Z
Flight time N/A
Altitude 35000
Route KEMAX N851 ROXEN BEDOS N851 PELUP NILUG
Aircraft B744/H-SDE3FGHIM1M2RWXY/LB1

Departure

Time 2026-05-05 17:42
Airport Copenhagen Kastrup Airport (EKCH)

Arrival

Time N/A
Airport Stockholm-Arlanda Airport (ESSA)
Time Latitude Longitude Altitude Speed Heading
2026-05-05 17:14 55.62740 12.65763 21 ft 0 kts 270°
2026-05-05 17:24 55.62740 12.65770 21 ft 2 kts 276°
2026-05-05 17:24 55.62737 12.65794 21 ft 2 kts 291°
2026-05-05 17:24 55.62730 12.65817 21 ft 2 kts 308°
2026-05-05 17:24 55.62719 12.65836 21 ft 2 kts 327°
2026-05-05 17:25 55.62706 12.65847 21 ft 2 kts 345°
2026-05-05 17:25 55.62696 12.65851 22 ft 2 kts 356°
2026-05-05 17:25 55.62676 12.65851 22 ft 2 kts 359°
2026-05-05 17:25 55.62674 12.65851 22 ft 2 kts 359°
2026-05-05 17:26 55.62700 12.65866 21 ft 4 kts 36°
2026-05-05 17:26 55.62717 12.65911 21 ft 4 kts 73°
2026-05-05 17:26 55.62714 12.65963 21 ft 4 kts 111°
2026-05-05 17:26 55.62694 12.66008 22 ft 4 kts 134°
2026-05-05 17:27 55.62685 12.66026 22 ft 0 kts 132°
2026-05-05 17:28 55.62684 12.66027 22 ft 1 kts 132°
2026-05-05 17:29 55.62666 12.66063 22 ft 6 kts 132°
2026-05-05 17:29 55.62614 12.66129 22 ft 12 kts 167°
2026-05-05 17:29 55.62527 12.66134 22 ft 12 kts 203°
2026-05-05 17:29 55.62471 12.66049 22 ft 9 kts 235°
2026-05-05 17:30 55.62447 12.65960 21 ft 0 kts 266°
2026-05-05 17:34 55.62445 12.65911 21 ft 7 kts 266°
2026-05-05 17:34 55.62444 12.65773 21 ft 13 kts 271°
2026-05-05 17:34 55.62444 12.65630 22 ft 9 kts 269°
2026-05-05 17:34 55.62442 12.65524 22 ft 7 kts 269°
2026-05-05 17:35 55.62441 12.65445 22 ft 7 kts 269°
2026-05-05 17:35 55.62440 12.65275 22 ft 18 kts 268°
2026-05-05 17:35 55.62365 12.65204 22 ft 14 kts 181°
2026-05-05 17:35 55.62251 12.65194 20 ft 17 kts 184°
2026-05-05 17:36 55.62145 12.65109 19 ft 16 kts 217°
2026-05-05 17:36 55.62061 12.65007 19 ft 13 kts 211°
2026-05-05 17:36 55.61984 12.64921 19 ft 13 kts 213°
2026-05-05 17:36 55.61904 12.64829 19 ft 14 kts 213°
2026-05-05 17:37 55.61820 12.64732 19 ft 15 kts 213°
2026-05-05 17:37 55.61721 12.64617 19 ft 19 kts 213°
2026-05-05 17:37 55.61597 12.64475 19 ft 23 kts 213°
2026-05-05 17:37 55.61449 12.64305 19 ft 27 kts 213°
2026-05-05 17:38 55.61280 12.64111 20 ft 30 kts 213°
2026-05-05 17:38 55.61094 12.63898 21 ft 29 kts 214°
2026-05-05 17:38 55.60935 12.63715 21 ft 25 kts 213°
2026-05-05 17:38 55.60791 12.63550 19 ft 24 kts 214°
2026-05-05 17:39 55.60660 12.63394 19 ft 21 kts 219°
2026-05-05 17:39 55.60539 12.63214 18 ft 11 kts 221°
2026-05-05 17:39 55.60511 12.63171 19 ft 1 kts 221°
2026-05-05 17:39 55.60505 12.63162 19 ft 2 kts 221°
2026-05-05 17:40 55.60415 12.63141 17 ft 20 kts 140°
2026-05-05 17:40 55.60371 12.63210 16 ft 10 kts 136°
2026-05-05 17:40 55.60344 12.63285 16 ft 5 kts 120°
2026-05-05 17:40 55.60334 12.63320 16 ft 0 kts 104°
2026-05-05 17:41 55.60352 12.63377 16 ft 12 kts 32°
2026-05-05 17:41 55.60438 12.63503 16 ft 27 kts 41°
2026-05-05 17:41 55.60823 12.64102 19 ft 127 kts 40°
2026-05-05 17:41 55.61704 12.65494 135 ft 201 kts 42°
2026-05-05 17:42 55.62674 12.67023 795 ft 172 kts 38°
2026-05-05 17:42 55.63601 12.68432 1358 ft 183 kts 38°
2026-05-05 17:42 55.64616 12.69852 1844 ft 193 kts 35°
2026-05-05 17:42 55.66064 12.71832 1951 ft 203 kts 34°
2026-05-05 17:43 55.66810 12.72874 1886 ft 206 kts 38°
2026-05-05 17:43 55.67906 12.74483 1985 ft 203 kts 38°
2026-05-05 17:43 55.68964 12.76107 2428 ft 210 kts 39°
2026-05-05 17:43 55.70064 12.77840 2758 ft 213 kts 40°
2026-05-05 17:44 55.71208 12.79639 3182 ft 230 kts 40°
2026-05-05 17:44 55.72411 12.81523 4006 ft 235 kts 40°
2026-05-05 17:44 55.73630 12.83432 4860 ft 238 kts 40°
2026-05-05 17:44 55.74868 12.85374 5705 ft 242 kts 40°
2026-05-05 17:45 55.76132 12.87353 6470 ft 249 kts 40°
2026-05-05 17:45 55.77462 12.89437 6788 ft 259 kts 40°
2026-05-05 17:45 55.78806 12.91556 6853 ft 258 kts 40°
2026-05-05 17:45 55.80141 12.93652 6868 ft 254 kts 40°
2026-05-05 17:46 55.81461 12.95729 6863 ft 254 kts 40°
2026-05-05 17:46 55.83224 12.98512 6875 ft 254 kts 40°
2026-05-05 17:46 55.84105 12.99901 6876 ft 255 kts 40°
2026-05-05 17:46 55.85429 13.01986 6897 ft 255 kts 40°
2026-05-05 17:47 55.86752 13.04070 6908 ft 255 kts 40°
2026-05-05 17:47 55.88086 13.06178 6919 ft 259 kts 40°
2026-05-05 17:47 55.89432 13.08305 6921 ft 260 kts 40°
2026-05-05 17:47 55.91231 13.11161 6928 ft 266 kts 40°
2026-05-05 17:48 55.92666 13.13430 7217 ft 286 kts 40°
2026-05-05 17:48 55.93646 13.14996 7642 ft 285 kts 40°
2026-05-05 17:48 55.95114 13.17347 8225 ft 286 kts 39°
2026-05-05 17:48 55.97095 13.20510 9024 ft 291 kts 39°
2026-05-05 17:49 55.98100 13.22117 9401 ft 294 kts 39°
2026-05-05 17:49 55.99627 13.24556 10039 ft 299 kts 38°
2026-05-05 17:49 56.01180 13.27035 10652 ft 304 kts 38°
2026-05-05 17:49 56.03296 13.30403 11492 ft 311 kts 38°
2026-05-05 17:50 56.04376 13.32121 11946 ft 316 kts 38°
2026-05-05 17:50 56.06020 13.34739 12543 ft 321 kts 38°
2026-05-05 17:50 56.07704 13.37423 13175 ft 333 kts 37°
2026-05-05 17:50 56.09478 13.40260 13818 ft 355 kts 37°
2026-05-05 17:51 56.11338 13.43256 14604 ft 368 kts 38°
2026-05-05 17:51 56.13264 13.46291 15299 ft 373 kts 33°
2026-05-05 17:51 56.15369 13.48983 15976 ft 376 kts 30°
2026-05-05 17:51 56.18199 13.52620 16811 ft 379 kts 31°
2026-05-05 17:52 56.20338 13.55396 17349 ft 383 kts 31°
2026-05-05 17:52 56.21779 13.57267 17675 ft 386 kts 31°
2026-05-05 17:52 56.23962 13.60096 18163 ft 391 kts 31°
2026-05-05 17:52 56.26167 13.62982 18628 ft 397 kts 31°
2026-05-05 17:53 56.28398 13.65912 19098 ft 401 kts 32°
2026-05-05 17:53 56.30645 13.68877 19571 ft 404 kts 32°
2026-05-05 17:53 56.32904 13.71887 20063 ft 408 kts 32°
2026-05-05 17:53 56.35196 13.74999 20758 ft 417 kts 32°
2026-05-05 17:54 56.37545 13.78037 21626 ft 421 kts 31°
2026-05-05 17:54 56.39903 13.81154 22461 ft 425 kts 32°
2026-05-05 17:54 56.42286 13.84308 23219 ft 430 kts 32°
2026-05-05 17:54 56.44691 13.87488 24006 ft 433 kts 32°
2026-05-05 17:55 56.47940 13.91789 24972 ft 439 kts 32°
2026-05-05 17:55 56.49573 13.93969 25402 ft 443 kts 32°
2026-05-05 17:55 56.52043 13.97284 26119 ft 446 kts 32°
2026-05-05 17:55 56.54526 14.00657 26771 ft 451 kts 33°
2026-05-05 17:56 56.57034 14.04102 27411 ft 455 kts 33°
2026-05-05 17:56 56.59585 14.07493 28050 ft 457 kts 31°
2026-05-05 17:56 56.62142 14.10903 28692 ft 460 kts 32°
2026-05-05 17:56 56.64710 14.14349 29278 ft 463 kts 32°
2026-05-05 17:57 56.67293 14.17819 29828 ft 467 kts 32°
2026-05-05 17:57 56.69892 14.21343 30344 ft 470 kts 32°
2026-05-05 17:57 56.72515 14.24892 30805 ft 474 kts 32°
2026-05-05 17:57 56.75160 14.28495 31234 ft 478 kts 32°
2026-05-05 17:58 56.77825 14.32108 31687 ft 481 kts 32°
2026-05-05 17:58 56.80500 14.35758 32100 ft 484 kts 32°
2026-05-05 17:58 56.83193 14.39435 32494 ft 488 kts 32°
2026-05-05 17:58 56.85903 14.43141 32868 ft 491 kts 32°
2026-05-05 17:59 56.88630 14.46877 33225 ft 494 kts 32°
2026-05-05 17:59 56.91373 14.50641 33584 ft 497 kts 32°
2026-05-05 17:59 56.94128 14.54436 33920 ft 500 kts 32°
2026-05-05 17:59 56.96902 14.58254 34239 ft 503 kts 32°
2026-05-05 18:00 56.99595 14.62368 34495 ft 509 kts 37°
2026-05-05 18:00 57.02209 14.66745 34716 ft 513 kts 38°
2026-05-05 18:00 57.04879 14.71101 34818 ft 519 kts 38°
2026-05-05 18:00 57.07571 14.75577 34878 ft 530 kts 39°
2026-05-05 18:01 57.11230 14.81694 34919 ft 541 kts 38°
2026-05-05 18:01 57.15908 14.89572 34918 ft 550 kts 39°
2026-05-05 18:02 57.21541 14.99093 34890 ft 552 kts 39°
2026-05-05 18:02 57.27151 15.08637 34864 ft 549 kts 39°
2026-05-05 18:03 57.32764 15.18193 34861 ft 551 kts 38°
2026-05-05 18:03 57.38382 15.27804 34875 ft 554 kts 39°
2026-05-05 18:04 57.44010 15.37491 34879 ft 555 kts 38°
2026-05-05 18:04 57.49631 15.47194 34876 ft 554 kts 38°
2026-05-05 18:05 57.56177 15.58540 34879 ft 554 kts 38°
2026-05-05 18:05 57.61483 15.67794 34872 ft 555 kts 39°
2026-05-05 18:06 57.67088 15.77602 34875 ft 556 kts 39°
2026-05-05 18:06 57.72689 15.87465 34880 ft 556 kts 39°
2026-05-05 18:07 57.78292 15.97361 34880 ft 557 kts 39°
2026-05-05 18:07 57.83883 16.07281 34881 ft 556 kts 39°
2026-05-05 18:09 58.00734 16.37470 34905 ft 558 kts 39°
2026-05-05 18:09 58.06321 16.47557 34875 ft 558 kts 39°
2026-05-05 18:10 58.11887 16.57658 34865 ft 557 kts 39°
2026-05-05 18:10 58.17440 16.67803 34832 ft 558 kts 40°
2026-05-05 18:11 58.23000 16.77970 34821 ft 560 kts 40°
2026-05-05 18:11 58.28576 16.88245 34849 ft 561 kts 40°
2026-05-05 18:12 58.34137 16.98546 34837 ft 561 kts 40°
2026-05-05 18:12 58.39697 17.08851 34826 ft 561 kts 40°
2026-05-05 18:13 58.45258 17.19225 34833 ft 563 kts 40°
2026-05-05 18:13 58.50816 17.29655 34838 ft 562 kts 40°
2026-05-05 18:14 58.56354 17.40084 34818 ft 561 kts 40°
2026-05-05 18:14 58.61885 17.50552 34849 ft 562 kts 40°
2026-05-05 18:15 58.67409 17.61085 34814 ft 563 kts 40°
2026-05-05 18:15 58.72958 17.71641 34838 ft 564 kts 40°
2026-05-05 18:16 58.78500 17.82320 34808 ft 564 kts 41°
2026-05-05 18:16 58.83864 17.93280 34814 ft 565 kts 45°
2026-05-05 18:17 58.88175 18.05935 34819 ft 573 kts 66°
2026-05-05 18:17 58.89400 18.13250 34844 ft 574 kts 78°
2026-05-05 18:17 58.89920 18.20844 34853 ft 573 kts 89°
2026-05-05 18:17 58.89724 18.28459 34871 ft 568 kts 101°
2026-05-05 18:18 58.88825 18.35809 34884 ft 557 kts 112°
2026-05-05 18:18 58.87283 18.42410 34847 ft 528 kts 127°
2026-05-05 18:18 58.85105 18.47779 34819 ft 490 kts 143°
2026-05-05 18:18 58.82475 18.51581 34779 ft 462 kts 160°
2026-05-05 18:19 58.79574 18.53691 34770 ft 436 kts 177°
2026-05-05 18:19 58.76623 18.54058 34821 ft 422 kts 191°
2026-05-05 18:19 58.73707 18.53565 34908 ft 425 kts 193°
2026-05-05 18:20 58.67895 18.51733 34933 ft 425 kts 197°
2026-05-05 18:20 58.62113 18.49758 34903 ft 423 kts 197°
2026-05-05 18:20 58.59343 18.48240 34842 ft 409 kts 212°
2026-05-05 18:21 58.57040 18.45289 34838 ft 396 kts 228°
2026-05-05 18:21 58.55410 18.41174 34850 ft 389 kts 245°
2026-05-05 18:21 58.54593 18.36305 34859 ft 388 kts 261°
2026-05-05 18:21 58.54668 18.31119 34870 ft 395 kts 278°
2026-05-05 18:22 58.55641 18.26177 34850 ft 406 kts 295°
2026-05-05 18:22 58.57442 18.21938 34857 ft 421 kts 311°
2026-05-05 18:22 58.59924 18.18830 34860 ft 438 kts 328°
2026-05-05 18:23 58.65537 18.14392 34830 ft 427 kts 316°
2026-05-05 18:23 58.70039 18.07228 34739 ft 423 kts 310°
2026-05-05 18:23 58.71944 18.03085 34524 ft 408 kts 297°
2026-05-05 18:24 58.73203 17.98359 34346 ft 393 kts 284°
2026-05-05 18:24 58.73971 17.93399 34166 ft 386 kts 281°
2026-05-05 18:24 58.74705 17.88458 33922 ft 386 kts 283°
2026-05-05 18:24 58.75818 17.83755 33657 ft 393 kts 296°
2026-05-05 18:25 58.77555 17.79685 33392 ft 402 kts 309°
2026-05-05 18:25 58.79017 17.77465 33203 ft 407 kts 319°
2026-05-05 18:25 58.82582 17.74870 32764 ft 426 kts 342°
2026-05-05 18:25 58.85582 17.74867 32462 ft 444 kts
2026-05-05 18:26 58.88564 17.76622 32192 ft 460 kts 19°
2026-05-05 18:26 58.91268 17.80046 31921 ft 476 kts 37°
2026-05-05 18:26 58.93453 17.84917 31660 ft 488 kts 54°
2026-05-05 18:26 58.94909 17.90836 31408 ft 492 kts 73°
2026-05-05 18:27 58.95509 17.97302 31141 ft 490 kts 91°
2026-05-05 18:27 58.95206 18.03744 30874 ft 477 kts 109°
2026-05-05 18:27 58.94051 18.09606 30583 ft 459 kts 127°
2026-05-05 18:27 58.92181 18.14385 30280 ft 438 kts 146°
2026-05-05 18:28 58.87180 18.19366 29707 ft 387 kts 183°
2026-05-05 18:28 58.84598 18.19435 29430 ft 363 kts 195°
2026-05-05 18:28 58.82147 18.18866 29139 ft 350 kts 199°
2026-05-05 18:29 58.79795 18.17984 28802 ft 341 kts 204°
2026-05-05 18:29 58.77523 18.16813 28506 ft 337 kts 204°
2026-05-05 18:29 58.75276 18.15663 28207 ft 335 kts 205°
2026-05-05 18:29 58.73034 18.14558 27911 ft 335 kts 202°
2026-05-05 18:30 58.70775 18.13602 27618 ft 331 kts 202°
2026-05-05 18:30 58.68560 18.12648 27313 ft 324 kts 202°
2026-05-05 18:30 58.66482 18.11339 26926 ft 307 kts 218°
2026-05-05 18:30 58.64938 18.08772 26588 ft 290 kts 240°
2026-05-05 18:31 58.64158 18.05294 26268 ft 287 kts 260°
2026-05-05 18:31 58.64225 18.01485 25963 ft 293 kts 281°
2026-05-05 18:31 58.65169 17.97962 25646 ft 308 kts 302°
2026-05-05 18:31 58.66861 17.95320 25328 ft 322 kts 319°
2026-05-05 18:32 58.68797 17.93306 25020 ft 314 kts 318°
2026-05-05 18:32 58.70730 17.91364 24663 ft 324 kts 330°
2026-05-05 18:32 58.72934 17.90274 24375 ft 329 kts 334°
2026-05-05 18:32 58.75086 17.89015 24057 ft 320 kts 328°
2026-05-05 18:33 58.77143 17.87633 23750 ft 310 kts 329°
2026-05-05 18:33 58.79189 17.86519 23365 ft 312 kts 341°
2026-05-05 18:33 58.81396 17.86754 23039 ft 330 kts
2026-05-05 18:33 58.83588 17.88528 22734 ft 358 kts 27°
2026-05-05 18:34 58.85432 17.91892 22489 ft 376 kts 51°
2026-05-05 18:34 58.86618 17.96412 22200 ft 384 kts 75°
2026-05-05 18:34 58.86955 18.01467 21901 ft 380 kts 99°
2026-05-05 18:34 58.86407 18.06306 21599 ft 363 kts 122°
2026-05-05 18:35 58.85098 18.10242 21289 ft 339 kts 147°
2026-05-05 18:35 58.83282 18.12766 20938 ft 311 kts 171°
2026-05-05 18:35 58.81298 18.13608 20547 ft 281 kts 195°
2026-05-05 18:35 58.79454 18.13089 20216 ft 262 kts 203°
2026-05-05 18:36 58.77688 18.12366 19820 ft 262 kts 204°
2026-05-05 18:36 58.75921 18.11571 19457 ft 261 kts 206°
2026-05-05 18:36 58.74183 18.10716 19082 ft 256 kts 208°
2026-05-05 18:36 58.72719 18.09178 18640 ft 234 kts 233°
2026-05-05 18:37 58.71949 18.06562 18295 ft 226 kts 259°
2026-05-05 18:37 58.72045 18.03544 17934 ft 235 kts 284°
2026-05-05 18:37 58.73010 18.00903 17565 ft 256 kts 311°
2026-05-05 18:37 58.74673 17.99340 17206 ft 282 kts 337°
2026-05-05 18:38 58.76681 17.99341 16834 ft 301 kts
2026-05-05 18:38 58.78701 18.00553 16484 ft 308 kts
2026-05-05 18:38 58.80716 18.01868 16143 ft 305 kts
2026-05-05 18:38 58.82699 18.03162 15765 ft 302 kts
2026-05-05 18:39 58.84673 18.04449 15391 ft 299 kts
2026-05-05 18:39 58.86646 18.05732 15038 ft 300 kts
2026-05-05 18:39 58.88596 18.06994 14667 ft 294 kts
2026-05-05 18:39 58.90504 18.08247 14274 ft 291 kts
2026-05-05 18:40 58.92406 18.09501 13926 ft 288 kts
2026-05-05 18:40 58.94304 18.10714 13566 ft 288 kts
2026-05-05 18:40 58.96192 18.11891 13208 ft 283 kts
2026-05-05 18:40 58.98041 18.13004 12817 ft 276 kts
2026-05-05 18:41 58.99868 18.14060 12453 ft 276 kts
2026-05-05 18:41 59.01751 18.15075 12153 ft 289 kts
2026-05-05 18:41 59.03722 18.16082 11852 ft 298 kts
2026-05-05 18:41 59.05741 18.17063 11479 ft 302 kts
2026-05-05 18:42 59.07764 18.18003 11109 ft 296 kts
2026-05-05 18:42 59.09763 18.18882 10726 ft 293 kts
2026-05-05 18:42 59.11734 18.19717 10329 ft 289 kts
2026-05-05 18:42 59.13679 18.20503 9930 ft 285 kts
2026-05-05 18:43 59.15602 18.21249 9523 ft 283 kts
2026-05-05 18:43 59.17515 18.21980 9131 ft 279 kts
2026-05-05 18:43 59.19401 18.22695 8734 ft 276 kts
2026-05-05 18:43 59.21257 18.23387 8299 ft 269 kts
2026-05-05 18:44 59.23074 18.24059 7759 ft 266 kts
2026-05-05 18:44 59.24875 18.24706 7247 ft 263 kts
2026-05-05 18:44 59.26669 18.25343 7030 ft 263 kts
2026-05-05 18:44 59.28467 18.25971 6944 ft 264 kts
2026-05-05 18:45 59.30279 18.26594 6894 ft 266 kts
2026-05-05 18:45 59.32103 18.27211 6852 ft 267 kts
2026-05-05 18:45 59.33934 18.27680 6849 ft 266 kts
2026-05-05 18:45 59.35774 18.27962 6861 ft 266 kts
2026-05-05 18:46 59.37184 18.28208 6872 ft 266 kts